Wind_Speed
10 10 10 10 9 9 9 9 8 8 8 7 7 6 6 6 6 5 5 4 3 3 3 3 3 3 3 3 3 3 3 3 3 3 3 3 3 3 3 3 3 3 3
12 11 11 11 11 10 11 10 10 9 9 8 8 7 7 7 6 7 6 5 5 4 4 4 5 5 5 5 5 5 5 5 5 5 4 4 4 5 5 4 5 5 5
13 13 12 12 12 12 12 11 11 11 10 9 9 9 9 8 8 7 7 7 6 6 5 5 6 6 6 6 7 7 7 7 6 7 6 6 7 7 7 7 7 7 7
15 14 14 13 14 13 13 13 13 12 11 11 10 10 10 10 9 9 8 8 8 7 7 7 7 7 7 7 7 7 8 8 8 8 8 8 9 9 9 9 9 9 9
16 16 15 15 15 15 14 14 14 14 13 13 12 12 12 11 11 10 10 10 10 9 9 9 8 8 8 9 9 8 8 9 9 9 10 10 10 10 11 11 11 11 12
17 17 16 16 16 16 16 16 16 16 15 14 14 13 13 13 12 12 11 11 11 11 11 10 10 10 10 10 10 10 9 10 10 10 11 11 11 12 12 12 12 12 13
18 18 18 17 17 17 16 17 17 17 17 16 15 15 14 14 14 14 13 13 13 13 13 13 12 12 12 12 12 12 11 12 12 12 12 13 13 13 14 14 13 14 14
19 19 19 18 18 17 17 17 18 18 18 17 17 17 16 16 16 16 15 15 15 15 15 14 14 14 14 14 14 14 14 14 14 15 15 15 15 15 15 15 15 16 16
21 21 21 20 20 19 19 19 19 19 19 18 18 18 17 17 17 17 17 17 16 17 16 16 16 16 16 16 16 16 16 16 16 17 17 17 17 17 17 17 17 18 18
23 23 22 22 21 21 21 21 21 21 21 20 20 20 20 19 18 18 18 18 18 18 18 18 18 18 17 18 18 18 18 18 19 19 19 19 19 19 19 19 19 19 19
25 25 24 23 23 22 22 22 22 22 23 22 22 22 22 21 20 20 19 20 20 20 20 20 20 20 19 19 19 20 20 20 21 21 21 21 21 21 21 21 21 21 21
27 27 26 25 25 25 24 24 24 24 24 24 24 23 24 23 22 21 21 21 22 21 21 21 21 21 21 21 21 22 22 22 22 23 23 23 24 23 23 23 23 23 23
29 29 28 27 27 27 26 26 25 25 25 25 25 25 25 24 24 23 23 23 23 23 23 23 23 23 23 23 23 24 24 24 24 25 25 25 25 25 25 25 25 25 25
30 30 30 30 29 29 29 28 28 27 27 27 26 26 26 26 26 25 25 25 25 24 24 24 24 24 24 25 25 25 26 26 26 26 26 26 27 27 27 27 27 27 28
31 31 31 31 31 31 31 30 29 29 28 28 28 27 27 27 27 27 27 26 26 26 26 26 26 26 26 26 27 27 27 27 28 28 28 28 28 29 29 29 30 30 30
32 32 32 32 32 32 32 32 31 30 29 29 29 29 29 28 28 29 28 28 28 28 28 28 28 29 29 29 29 29 29 30 30 30 30 30 31 31 31 32 32 33 33
33 33 33 33 33 33 32 32 32 31 31 31 30 30 30 30 30 30 29 29 29 30 30 30 31 31 31 31 31 32 32 32 32 32 33 33 33 34 34 34 35 35 35
34 34 34 34 34 34 34 33 33 32 32 31 31 31 31 31 31 31 31 31 31 32 32 32 32 33 33 33 33 34 34 34 34 35 35 36 36 37 37 38 38 38 38
36 36 35 35 35 35 35 34 34 34 33 33 32 32 32 32 33 33 33 33 33 33 34 34 34 35 36 36 36 36 36 36 37 37 38 38 39 39 40 40 40 40 40
37 37 37 37 37 37 37 35 35 34 34 33 33 33 32 33 33 34 34 35 35 35 35 36 37 38 38 37 37 38 38 39 39 40 40 40 41 41 42 42 42 42 42
38 38 38 38 37 38 38 37 36 35 34 34 34 34 34 35 35 35 36 36 37 37 37 38 39 40 40 40 40 40 40 41 41 41 42 43 43 44 44 44 44 44 44
38 38 39 39 39 39 39 38 38 36 37 36 36 36 35 36 37 37 37 37 38 39 39 40 40 41 41 42 42 43 43 43 43 44 44 45 45 45 45 45 45 45 45
39 39 39 40 40 41 40 40 39 40 38 38 38 38 38 38 37 38 38 39 40 40 40 41 41 42 42 43 44 45 45 45 45 45 46 46 46 46 47 47 47 47 47
39 39 41 41 41 41 41 41 41 40 41 40 39 39 39 39 39 39 40 41 42 43 43 43 43 43 44 45 45 46 47 47 47 47 47 47 48 48 48 48 48 49 49
40 40 41 42 42 42 42 43 43 43 42 42 42 41 41 41 41 42 42 43 44 45 45 46 45 45 45 46 46 47 48 48 48 49 48 48 49 49 49 49 49 49 50
39 41 41 42 43 42 42 42 43 43 43 43 42 43 43 44 44 44 44 44 45 46 46 45 45 45 46 46 47 48 48 48 49 49 50 49 49 49 50 50 50 50 50
Wind_Direction
222 219 217 217 217 218 216 213 213 215 214 213 214 215 213 209 207 207 211 213 215 220 224 232 233 231 238 240 248 256 254 255 247 246 245 248 254 258 264 273 283 291 293
229 225 225 223 222 222 221 219 219 219 218 218 217 219 220 219 220 220 222 224 230 236 240 245 252 251 251 254 258 257 257 258 260 258 259 260 264 264 268 276 282 288 291
231 230 229 228 229 227 225 225 225 225 226 225 222 222 225 226 227 226 229 233 237 241 245 248 252 256 255 257 258 257 258 261 264 261 261 262 264 267 269 274 279 283 285
235 234 233 233 233 231 231 232 229 230 231 231 231 230 229 229 230 231 233 239 243 246 249 251 254 258 258 257 258 259 260 264 262 260 261 263 265 268 270 273 276 278 279
238 238 236 236 235 235 234 235 234 234 236 237 237 236 235 236 237 239 241 244 247 250 251 252 255 258 259 260 261 259 263 264 263 262 264 265 267 268 270 273 276 278 279
240 240 241 240 240 238 236 236 238 236 237 240 241 241 241 242 242 243 245 246 248 251 253 255 257 259 261 261 259 259 262 264 264 266 266 267 270 270 271 273 275 277 279
242 242 242 242 240 240 238 237 239 239 240 242 244 245 246 247 246 247 248 249 250 252 252 254 258 260 262 262 261 262 262 263 265 267 267 268 270 272 272 272 273 275 277
243 243 243 242 241 240 238 238 240 241 241 243 245 246 247 249 250 251 251 252 252 253 253 254 257 261 263 263 264 263 264 264 266 267 267 268 270 272 273 273 274 275 276
242 244 243 242 242 241 240 240 241 241 242 244 246 247 248 250 251 252 253 253 253 255 256 256 258 262 264 265 266 265 264 265 267 269 269 269 270 271 272 273 275 276 276
243 243 242 242 243 243 242 243 243 243 244 246 247 249 250 253 255 255 255 255 254 254 256 257 260 262 264 265 266 266 265 265 266 268 270 271 271 272 272 273 275 275 276
244 243 242 243 243 243 244 245 246 246 247 248 249 251 253 255 256 256 256 256 255 255 257 258 260 261 263 265 266 268 268 267 267 269 271 272 272 272 273 273 274 275 275
244 244 242 243 243 244 244 246 248 249 249 249 251 254 254 255 256 256 256 256 256 257 258 259 261 263 264 265 266 267 268 268 268 269 270 271 272 273 274 274 274 274 275
245 244 243 243 244 244 244 246 248 250 250 250 252 252 253 254 255 257 257 257 257 257 259 260 262 263 264 266 268 269 269 269 270 270 271 272 272 273 274 275 274 274 275
245 245 244 243 243 245 246 248 249 251 252 251 252 252 253 254 256 258 258 258 257 258 259 261 262 263 264 267 269 271 271 270 271 271 272 272 272 273 274 275 275 275 275
245 245 245 244 244 245 247 249 249 251 252 253 254 254 254 255 256 258 259 259 259 260 261 262 263 265 266 268 270 272 272 271 272 272 272 273 274 274 274 274 274 276 276
245 245 245 246 245 246 247 249 250 250 252 254 254 255 255 256 256 259 260 261 262 263 263 264 265 266 268 269 271 273 273 273 272 272 272 273 274 274 275 275 275 276 276
245 245 245 246 246 246 248 249 250 252 254 254 255 255 255 256 258 259 260 261 263 264 264 265 266 268 269 270 272 272 273 273 272 272 272 273 274 274 275 276 276 276 276
246 245 246 246 245 246 247 248 250 251 253 254 255 256 256 257 258 259 261 262 264 265 265 266 267 268 270 271 273 273 273 273 273 273 273 274 275 275 275 276 277 276 276
248 247 246 246 245 246 247 249 249 251 252 254 255 256 257 258 259 260 262 263 264 266 266 267 268 268 270 272 273 273 272 273 273 273 273 274 275 276 276 276 276 276 276
250 248 246 245 246 246 248 249 249 251 253 254 255 256 258 260 261 263 264 265 266 267 267 268 269 270 270 271 272 272 272 273 274 274 274 275 276 276 276 277 276 276 275
251 250 248 247 246 246 248 249 250 251 252 254 256 257 259 261 263 264 265 266 267 268 269 270 270 271 271 271 271 272 272 273 274 274 275 276 276 277 276 277 277 276 275
251 250 249 248 246 247 247 248 249 251 252 254 257 258 260 262 264 265 266 267 269 270 270 271 271 272 272 272 273 273 273 273 274 275 276 277 277 277 277 277 277 276 275
251 250 248 247 247 248 248 248 250 252 255 255 256 258 260 263 265 266 268 269 270 271 271 271 271 272 272 272 273 273 274 275 275 275 276 276 277 277 278 278 277 277 276
250 250 249 248 247 247 248 249 251 252 255 256 257 259 261 264 266 268 269 270 271 272 272 273 273 273 274 273 273 274 275 276 276 276 276 276 277 278 278 277 277 277 276
250 249 249 248 247 249 250 250 252 253 255 258 260 261 262 264 266 268 270 271 272 273 274 273 273 274 274 274 274 275 275 276 276 277 277 278 278 278 277 276 276 276 276
249 249 248 248 247 248 250 252 253 255 257 259 260 262 264 265 267 269 271 272 273 274 273 273 273 273 273 273 274 275 276 277 277 277 278 278 279 279 278 276 276 276 276
Height
5856 5857 5858 5859 5859 5860 5861 5862 5862 5863 5863 5863 5864 5864 5864 5864 5864 5864 5865 5865 5865 5864 5864 5865 5865 5864 5864 5864 5864 5865 5865 5865 5864 5864 5864 5864 5864 5864 5864 5863 5863 5863 5863
5855 5855 5856 5857 5858 5858 5859 5860 5861 5861 5862 5862 5863 5863 5863 5863 5863 5863 5863 5864 5864 5864 5864 5864 5864 5864 5864 5864 5864 5864 5864 5864 5864 5864 5863 5863 5863 5863 5863 5862 5862 5862 5862
5852 5853 5854 5855 5856 5856 5857 5858 5859 5860 5860 5861 5861 5862 5862 5862 5862 5862 5862 5862 5863 5863 5863 5863 5863 5863 5863 5863 5863 5863 5863 5863 5863 5863 5862 5862 5862 5862 5862 5861 5861 5861 5860
5850 5851 5852 5853 5854 5854 5855 5856 5857 5857 5858 5859 5859 5860 5860 5861 5861 5861 5861 5861 5861 5862 5862 5861 5861 5861 5861 5861 5861 5861 5861 5861 5861 5861 5861 5861 5860 5860 5860 5860 5860 5859 5859
5847 5848 5849 5850 5851 5852 5853 5854 5854 5855 5856 5857 5857 5858 5858 5858 5859 5859 5859 5860 5860 5860 5860 5860 5860 5860 5860 5860 5860 5860 5860 5859 5859 5859 5859 5859 5859 5858 5858 5858 5858 5857 5857
5844 5845 5846 5847 5848 5849 5850 5851 5852 5853 5853 5854 5855 5855 5856 5856 5856 5857 5857 5857 5858 5858 5858 5858 5858 5858 5858 5858 5858 5858 5858 5858 5857 5857 5857 5856 5856 5856 5856 5856 5855 5855 5855
5841 5842 5843 5844 5845 5846 5847 5848 5849 5850 5851 5851 5852 5853 5853 5854 5854 5854 5855 5855 5855 5855 5856 5856 5856 5856 5856 5855 5855 5855 5856 5856 5855 5855 5854 5854 5854 5853 5853 5853 5853 5852 5852
5837 5838 5839 5841 5842 5843 5844 5845 5846 5847 5847 5848 5849 5849 5850 5851 5851 5851 5852 5852 5852 5852 5853 5853 5853 5853 5853 5853 5853 5853 5853 5853 5853 5852 5852 5852 5851 5851 5850 5850 5850 5849 5849
5833 5834 5836 5837 5838 5839 5840 5841 5842 5843 5844 5845 5845 5846 5847 5847 5847 5848 5848 5848 5849 5849 5849 5849 5850 5850 5850 5850 5850 5849 5849 5849 5849 5849 5849 5848 5848 5847 5847 5846 5846 5846 5845
5828 5830 5831 5833 5834 5835 5836 5837 5838 5839 5840 5841 5842 5842 5843 5843 5844 5844 5844 5844 5845 5845 5845 5846 5846 5846 5846 5846 5846 5846 5845 5845 5845 5845 5845 5844 5844 5844 5843 5843 5842 5842 5841
5824 5825 5826 5828 5829 5831 5832 5833 5834 5835 5836 5836 5837 5838 5838 5839 5839 5840 5840 5840 5841 5841 5841 5841 5842 5841 5841 5841 5841 5841 5841 5841 5841 5840 5840 5840 5840 5839 5839 5838 5838 5837 5837
5818 5820 5821 5823 5824 5826 5827 5828 5829 5830 5831 5832 5832 5833 5834 5834 5834 5835 5835 5836 5836 5836 5837 5837 5837 5837 5837 5837 5837 5837 5836 5836 5836 5836 5835 5835 5835 5834 5834 5833 5833 5832 5832
5812 5814 5816 5817 5819 5821 5822 5823 5824 5825 5826 5827 5827 5828 5829 5829 5829 5830 5830 5831 5831 5831 5832 5832 5832 5832 5832 5832 5832 5831 5831 5831 5830 5830 5830 5829 5829 5829 5828 5828 5827 5827 5826
5806 5808 5810 5811 5813 5815 5816 5818 5819 5820 5820 5821 5822 5823 5823 5824 5824 5825 5825 5825 5826 5826 5826 5826 5826 5826 5826 5826 5826 5826 5825 5825 5825 5824 5824 5824 5823 5823 5822 5822 5821 5821 5820
5799 5801 5803 5805 5807 5809 5810 5811 5813 5814 5814 5815 5816 5817 5817 5818 5819 5819 5819 5820 5820 5820 5820 5821 5821 5821 5821 5820 5820 5820 5819 5819 5818 5818 5818 5817 5817 5816 5816 5815 5815 5814 5813
5791 5793 5796 5798 5800 5802 5803 5805 5806 5807 5808 5809 5810 5811 5811 5812 5812 5813 5813 5814 5814 5814 5814 5814 5814 5814 5814 5814 5814 5813 5813 5812 5812 5812 5811 5811 5810 5809 5809 5808 5807 5807 5806
5784 5786 5788 5791 5793 5795 5796 5798 5799 5801 5802 5803 5803 5804 5805 5805 5806 5806 5807 5807 5807 5808 5808 5808 5808 5808 5807 5807 5807 5806 5806 5805 5805 5804 5804 5803 5803 5802 5801 5800 5799 5798 5797
5777 5779 5781 5783 5785 5787 5789 5790 5792 5793 5794 5796 5796 5797 5798 5799 5799 5799 5800 5800 5800 5801 5801 5801 5800 5800 5800 5799 5799 5798 5798 5797 5797 5796 5796 5795 5794 5794 5793 5792 5791 5790 5788
5769 5771 5773 5775 5777 5779 5781 5783 5785 5786 5787 5788 5789 5790 5791 5791 5792 5792 5793 5793 5793 5793 5793 5793 5793 5793 5792 5792 5791 5790 5790 5789 5789 5788 5787 5786 5785 5784 5783 5782 5781 5780 5778
5761 5763 5765 5768 5769 5771 5773 5775 5777 5778 5780 5781 5782 5782 5783 5784 5784 5785 5785 5785 5785 5785 5785 5784 5784 5784 5783 5783 5782 5782 5781 5780 5779 5779 5778 5777 5776 5774 5773 5772 5771 5769 5768
5752 5755 5757 5759 5761 5763 5765 5767 5769 5771 5772 5773 5774 5775 5775 5776 5776 5776 5776 5776 5776 5776 5776 5775 5774 5774 5774 5773 5773 5772 5772 5771 5770 5769 5768 5767 5765 5764 5762 5761 5759 5758 5757
5743 5746 5748 5750 5752 5754 5756 5758 5760 5762 5763 5764 5765 5766 5766 5767 5767 5767 5767 5767 5767 5767 5766 5766 5765 5764 5763 5762 5762 5761 5761 5761 5760 5758 5757 5755 5754 5752 5751 5749 5748 5746 5745
5734 5736 5739 5741 5743 5745 5747 5749 5751 5753 5755 5755 5756 5757 5758 5758 5758 5757 5758 5757 5757 5757 5756 5755 5754 5754 5753 5752 5750 5750 5749 5749 5749 5748 5746 5744 5742 5740 5739 5737 5736 5734 5732
5725 5727 5729 5731 5734 5736 5738 5740 5742 5744 5745 5746 5747 5747 5747 5748 5747 5747 5747 5747 5747 5746 5745 5744 5743 5742 5741 5740 5739 5738 5737 5736 5735 5735 5735 5732 5730 5728 5726 5725 5723 5722 5720
5715 5717 5719 5721 5724 5726 5728 5730 5732 5733 5734 5736 5736 5737 5737 5737 5737 5737 5737 5736 5736 5735 5734 5733 5732 5731 5729 5728 5727 5726 5725 5723 5722 5721 5721 5720 5718 5716 5714 5712 5711 5709 5707
5705 5707 5709 5711 5714 5716 5718 5720 5721 5723 5724 5725 5726 5726 5727 5726 5726 5726 5725 5724 5724 5723 5722 5720 5719 5718 5717 5716 5715 5714 5712 5711 5710 5708 5707 5706 5704 5703 5701 5699 5697 5695 5693